Погода в Днепровке

Россия / Республика Крым     45°42′59″N   34°21′53″E
темп.,
°C
ветер,
м/с
пор.,
м/с
влажн.,
%
обл.,
%
осадки,
мм/ч
давл.,
гПа
погр.,
м
13 мая, чт
чт1300:00+9вюв00821 0.0 101210
03:00+8вюв118358 0.0 101210
06:00+8в11835 0.0 101211
09:00+15в335999 0.0 1012598
12:00+19в4450100 0.0 1011884
15:00+20в555037 0.0 1011978
18:00+17в685865 0.0 1010406
21:00+12в410890 0.0 1010176
14 мая, пт
пт1400:00+12юв33933 0.0 100941
03:00+11зюз338320 0.0 100929
06:00+12з2281100 0.0 100932
09:00+18юз3451100 0.0 1010366
12:00+24юз563990 0.0 10101006
15:00+24юз6842100 0.0 10101307
18:00+22юз4556100 0.0 1011877
21:00+15з22820 0.0 101215
15 мая, сб
сб1500:00+13зюз33813 0.0 101238
03:00+12зюз33755 0.0 101329
06:00+13зюз2277100 0.0 101321
09:00+19ююз215497 0.0 1014381
12:00+24юв22415 0.0 10141329
15:00+26в353714 0.0 10122508
18:00+22в57517 0.0 1012504
21:00+17вюв3362100 0.0 101230
16 мая, вс
вс1600:00+15юв2255100 0.0 101211
03:00+14св225758 0.0 101111
06:00+14всв3574100 0.0 101078
09:00+21всв5757100 0.0 1009380
12:00+24всв6749100 0.0 1008760
15:00+24всв5754100 0.3 1007715
18:00+22всв4672100 0.5 1005381
21:00+17всв22905 0.8 100418
17 мая, пн
пн1700:00+16ссв228990 0.4 100315
03:00+17ссв4687100 0.7 100182
06:00+16зюз479499 0.0 1002168
09:00+21зюз337663 0.0 1004697
12:00+23юз666892 0.0 10041087
15:00+24з885396 0.1 10051620
18:00+22зюз78565 0.0 1007991
21:00+15юз49831 0.0 1009196